• In Austria
  • List of Countries
  • For 7 days
  • Water Temperature
  • Satellite Maps
  • Weather Map
  • News
  • Weather Widgets
  • user-avatar
    Login

    Hourly Weather Kembé

    Today, 22 January, Monday

    Time Temperature Precipitation Wind Pressure Humidity
    00:00 +25°C° 0 mm 1 mps 711 mmHg 25%
    01:00 +24°C° 0 mm 1 mps 711 mmHg 26%
    02:00 +24°C° 0 mm 1 mps 711 mmHg 27%
    03:00 +23°C° 0 mm 1 mps 711 mmHg 27%
    04:00 +20°C° 0 mm 0 mps 711 mmHg 28%
    05:00 +23°C° 0 mm 1 mps 712 mmHg 27%
    06:00 +24°C° 0 mm 1 mps 712 mmHg 25%
    07:00 +25°C° 0 mm 1 mps 713 mmHg 24%
    08:00 +29°C° 0 mm 1 mps 713 mmHg 20%
    09:00 +35°C° 0 mm 2 mps 713 mmHg 15%
    10:00 +39°C° 0 mm 2 mps 713 mmHg 11%
    11:00 +40°C° 0 mm 2 mps 713 mmHg 10%
    12:00 +42°C° 0 mm 1 mps 712 mmHg 9%
    13:00 +42°C° 0 mm 2 mps 711 mmHg 9%
    14:00 +42°C° 0 mm 2 mps 711 mmHg 9%
    15:00 +41°C° 0 mm 2 mps 710 mmHg 9%
    16:00 +41°C° 0 mm 2 mps 709 mmHg 10%
    17:00 +36°C° 0 mm 1 mps 709 mmHg 12%
    18:00 +33°C° 0 mm 1 mps 710 mmHg 15%
    19:00 +30°C° 0 mm 1 mps 710 mmHg 17%
    20:00 +29°C° 0 mm 1 mps 710 mmHg 18%
    21:00 +28°C° 0 mm 1 mps 710 mmHg 19%
    22:00 +27°C° 0 mm 1 mps 711 mmHg 20%
    23:00 +26°C° 0 mm 1 mps 711 mmHg 21%

    Tomorrow, 23 January, Tuesday

    Time Temperature Precipitation Wind Pressure Humidity
    00:00 +25°C° 0 mm 1 mps 711 mmHg 21%
    01:00 +25°C° 0 mm 1 mps 711 mmHg 22%
    02:00 +24°C° 0 mm 1 mps 711 mmHg 23%
    03:00 +24°C° 0 mm 1 mps 710 mmHg 23%
    04:00 +23°C° 0 mm 1 mps 710 mmHg 24%
    05:00 +24°C° 0 mm 1 mps 711 mmHg 23%
    06:00 +25°C° 0 mm 1 mps 711 mmHg 23%
    07:00 +25°C° 0 mm 1 mps 712 mmHg 22%
    08:00 +29°C° 0 mm 1 mps 712 mmHg 18%
    09:00 +34°C° 0 mm 2 mps 712 mmHg 14%
    10:00 +38°C° 0 mm 2 mps 712 mmHg 10%
    11:00 +40°C° 0 mm 2 mps 712 mmHg 9%
    12:00 +42°C° 0 mm 2 mps 711 mmHg 9%
    13:00 +43°C° 0 mm 2 mps 710 mmHg 8%
    14:00 +43°C° 0 mm 2 mps 710 mmHg 8%
    15:00 +42°C° 0 mm 1 mps 709 mmHg 9%
    16:00 +42°C° 0 mm 1 mps 708 mmHg 9%
    17:00 +37°C° 0 mm 1 mps 708 mmHg 11%
    18:00 +34°C° 0 mm 1 mps 708 mmHg 14%
    19:00 +28°C° 0 mm 0 mps 708 mmHg 17%
    20:00 +27°C° 0 mm 0 mps 709 mmHg 18%
    21:00 +26°C° 0 mm 0 mps 709 mmHg 20%
    22:00 +25°C° 0 mm 0 mps 710 mmHg 21%
    23:00 +24°C° 0 mm 0 mps 710 mmHg 22%

    Day after tomorrow, 24 January, Wednesday

    Time Temperature Precipitation Wind Pressure Humidity
    00:00 +24°C° 0 mm 0 mps 710 mmHg 23%
    01:00 +23°C° 0 mm 0 mps 709 mmHg 23%
    02:00 +23°C° 0 mm 0 mps 710 mmHg 23%
    03:00 +24°C° 0 mm 0 mps 710 mmHg 23%
    04:00 +24°C° 0 mm 0 mps 710 mmHg 23%
    05:00 +24°C° 0 mm 0 mps 711 mmHg 23%
    06:00 +25°C° 0 mm 0 mps 711 mmHg 23%
    07:00 +25°C° 0 mm 0 mps 712 mmHg 23%
    08:00 +31°C° 0 mm 1 mps 712 mmHg 20%
    09:00 +34°C° 0 mm 1 mps 713 mmHg 17%
    10:00 +39°C° 0 mm 1 mps 713 mmHg 14%
    11:00 +40°C° 0 mm 1 mps 712 mmHg 13%
    12:00 +42°C° 0 mm 1 mps 711 mmHg 12%
    13:00 +43°C° 0 mm 1 mps 710 mmHg 11%
    14:00 +42°C° 0 mm 1 mps 710 mmHg 11%
    15:00 +42°C° 0 mm 1 mps 709 mmHg 11%
    16:00 +41°C° 0 mm 1 mps 708 mmHg 12%
    17:00 +37°C° 0 mm 1 mps 708 mmHg 16%
    18:00 +33°C° 0 mm 1 mps 709 mmHg 20%
    19:00 +30°C° 0 mm 1 mps 709 mmHg 24%
    20:00 +29°C° 0 mm 1 mps 709 mmHg 27%
    21:00 +28°C° 0 mm 1 mps 709 mmHg 30%
    22:00 +25°C° 0 mm 0 mps 710 mmHg 34%
    23:00 +24°C° 0 mm 0 mps 710 mmHg 37%

    25 January, Thursday

    Time Temperature Precipitation Wind Pressure Humidity
    00:00 +24°C° 0 mm 0 mps 710 mmHg 41%
    01:00 +23°C° 0 mm 0 mps 710 mmHg 44%
    02:00 +25°C° 0 mm 1 mps 710 mmHg 49%
    03:00 +24°C° 0 mm 1 mps 710 mmHg 53%
    04:00 +24°C° 0 mm 1 mps 710 mmHg 57%
    05:00 +25°C° 0 mm 1 mps 710 mmHg 55%
    06:00 +26°C° 0 mm 1 mps 711 mmHg 53%
    07:00 +25°C° 0 mm 0 mps 712 mmHg 51%
    08:00 +29°C° 0 mm 1 mps 712 mmHg 45%
    09:00 +32°C° 0 mm 2 mps 713 mmHg 40%
    10:00 +36°C° 0 mm 2 mps 713 mmHg 35%
    11:00 +37°C° 0 mm 2 mps 712 mmHg 32%
    12:00 +38°C° 0 mm 2 mps 711 mmHg 28%
    13:00 +39°C° 0 mm 1 mps 710 mmHg 24%
    14:00 +37°C° 0 mm 1 mps 710 mmHg 25%
    15:00 +37°C° 0 mm 1 mps 709 mmHg 26%
    16:00 +36°C° 0 mm 1 mps 709 mmHg 27%
    17:00 +34°C° 0 mm 1 mps 709 mmHg 31%
    18:00 +32°C° 0 mm 1 mps 709 mmHg 36%
    19:00 +30°C° 0 mm 1 mps 710 mmHg 40%
    20:00 +29°C° 0 mm 1 mps 710 mmHg 42%
    21:00 +28°C° 0 mm 1 mps 710 mmHg 45%
    22:00 +28°C° 0 mm 1 mps 710 mmHg 48%
    23:00 +27°C° 0 mm 1 mps 710 mmHg 51%

    26 January, Friday

    Time Temperature Precipitation Wind Pressure Humidity
    00:00 +26°C° 0 mm 1 mps 710 mmHg 54%
    01:00 +23°C° 0 mm 0 mps 709 mmHg 57%
    02:00 +25°C° 0 mm 1 mps 709 mmHg 60%
    03:00 +24°C° 0 mm 1 mps 709 mmHg 63%
    04:00 +24°C° 0 mm 1 mps 709 mmHg 66%
    05:00 +24°C° 0 mm 1 mps 710 mmHg 64%
    06:00 +25°C° 0 mm 1 mps 711 mmHg 62%
    07:00 +26°C° 0 mm 1 mps 712 mmHg 61%
    08:00 +31°C° 0 mm 1 mps 712 mmHg 49%
    09:00 +33°C° 0 mm 0 mps 713 mmHg 38%
    10:00 +38°C° 0 mm 0 mps 713 mmHg 27%
    11:00 +39°C° 0 mm 0 mps 712 mmHg 24%
    12:00 +39°C° 0 mm 0 mps 711 mmHg 22%
    13:00 +43°C° 0 mm 1 mps 710 mmHg 19%
    14:00 +42°C° 0 mm 1 mps 710 mmHg 20%
    15:00 +41°C° 0 mm 1 mps 709 mmHg 20%
    16:00 +40°C° 0 mm 1 mps 708 mmHg 21%
    17:00 +36°C° 0 mm 1 mps 709 mmHg 24%
    18:00 +34°C° 0 mm 1 mps 709 mmHg 28%
    19:00 +31°C° 0 mm 1 mps 709 mmHg 32%
    20:00 +30°C° 0 mm 1 mps 710 mmHg 33%
    21:00 +30°C° 0 mm 1 mps 710 mmHg 35%
    22:00 +29°C° 0 mm 1 mps 710 mmHg 36%
    23:00 +26°C° 0 mm 0 mps 710 mmHg 38%

    27 January, Saturday

    Time Temperature Precipitation Wind Pressure Humidity
    00:00 +25°C° 0 mm 0 mps 710 mmHg 39%
    01:00 +24°C° 0 mm 0 mps 709 mmHg 40%
    02:00 +24°C° 0 mm 0 mps 709 mmHg 41%
    03:00 +25°C° 0 mm 1 mps 709 mmHg 41%
    04:00 +24°C° 0 mm 1 mps 710 mmHg 42%
    05:00 +25°C° 0 mm 1 mps 710 mmHg 37%
    06:00 +26°C° 0 mm 1 mps 711 mmHg 31%
    07:00 +27°C° 0 mm 1 mps 712 mmHg 26%
    08:00 +30°C° 0 mm 2 mps 712 mmHg 21%
    09:00 +35°C° 0 mm 2 mps 712 mmHg 16%
    10:00 +39°C° 0 mm 3 mps 713 mmHg 10%
    11:00 +40°C° 0 mm 3 mps 712 mmHg 9%
    12:00 +41°C° 0 mm 2 mps 711 mmHg 9%
    13:00 +42°C° 0 mm 2 mps 710 mmHg 8%
    14:00 +42°C° 0 mm 2 mps 709 mmHg 8%
    15:00 +42°C° 0 mm 2 mps 709 mmHg 8%
    16:00 +41°C° 0 mm 2 mps 708 mmHg 8%
    17:00 +37°C° 0 mm 1 mps 708 mmHg 10%
    18:00 +34°C° 0 mm 1 mps 708 mmHg 13%
    19:00 +30°C° 0 mm 1 mps 708 mmHg 15%
    20:00 +29°C° 0 mm 1 mps 709 mmHg 16%
    21:00 +28°C° 0 mm 1 mps 709 mmHg 17%
    22:00 +27°C° 0 mm 1 mps 709 mmHg 18%
    23:00 +26°C° 0 mm 1 mps 709 mmHg 19%
    Show more